Regional Weather Roundup
Issued by NWS Portland, ME

Home | Current Version | Previous Version | Text Only | Print | Product List | Glossary On
Versions: 1 2 3 4 5 6 7 8 9 10 11 12 13 14 15 16 17 18 19 20 21 22 23 24 25 26 27 28 29 30 31 32 33 34 35 36 37 38 39 40 41 42 43 44 45 46 47 48 49 50
562
ASUS41 KGYX 250305
RWRGYX
WEATHER ROUNDUP FOR MAINE AND NEW HAMPSHIRE
NATIONAL WEATHER SERVICE GRAY ME
1100 PM EDT SUN JUL 24 2016

MEZ002-005-006-010-012-015-018-020-021-024-026-027-029-250400-
MAINE

CITY           SKY/WX    TMP DP  RH WIND       PRES   REMARKS
PORTLAND       PTCLDY    66  62  87 CALM      29.97S
SANFORD          N/A     63  62  97 SW5       29.98S
BAR HARBOR     CLEAR     65  60  84 CALM      29.94S
WISCASSET      PTCLDY    63  60  90 W3        29.98S
ROCKLAND       PTCLDY    63  60  90 W6        29.95S
FRYEBURG       NOT AVBL
LEWISTONAUBURN PTCLDY    62  60  93 SW3       29.98R
AUGUSTA        PTCLDY    70  56  61 NW6       29.97F
WATERVILLE     PTCLDY    68  58  70 N5        29.94F
BANGOR         MOCLDY    70  59  68 CALM      29.95S
GREENVILLE       N/A     65  52  62 NW7       29.98S
MILLINOCKET    MOCLDY    68  58  70 CALM      29.96R
HOULTON        PTCLDY    61  61 100 CALM      29.92S
PRESQUE ISLE   CLOUDY    60  59  96 CALM      29.95S
FRENCHVILLE    PTCLDY    64  53  67 NW6       29.95S
CARIBOU        PTCLDY    64  56  75 NW3       29.93S
$$

NHZ002-005-008-009-011-012-014-250400-
NEW HAMPSHIRE

CITY           SKY/WX    TMP DP  RH WIND       PRES   REMARKS
PORTSMOUTH     PTCLDY    69  59  69 N3        29.96R
ROCHESTER      MOCLDY    68  56  65 CALM      29.98R
NASHUA         PTCLDY    67  56  67 W3        29.98S
MANCHESTER     MOCLDY    71  52  50 CALM      29.97S
CONCORD        CLOUDY    62  55  77 S3        29.99R
LACONIA        PTCLDY    65  58  78 SW3       30.00S
PLYMOUTH       FAIR      58  57  94 CALM      30.01R
BERLIN         PTCLDY    59  55  87 CALM      30.02F
WHITEFIELD     PTCLDY    58  55  90 CALM      30.02S
JAFFREY        CLOUDY    63  56  78 CALM      30.02S
KEENE          CLOUDY    64  58  80 CALM      30.01S
LEBANON        PTCLDY    59  54  83 CALM      30.00S
MT WASHINGTON  PTCLDY    55  -6   8 NW17        N/A
$$

VTZ005-007-008-250400-
VERMONT

CITY           SKY/WX    TMP DP  RH WIND       PRES   REMARKS
ST JOHNSBURY     N/A     63  59  87 MISG      30.00S
MONTPELIER     FAIR      56  53  90 CALM      30.06S
BURLINGTON     MOCLDY    65  58  78 E3        29.99S
$$

MAZ007-012-024-CTZ003-RIZ002-NYZ038-NYZ072-250400-
SOUTHERN NEW ENGLAND AND NY

CITY           SKY/WX    TMP DP  RH WIND       PRES   REMARKS
BOSTON         CLOUDY    72  64  76 CALM      29.97S
WORCESTER      MOCLDY    75  46  35 NW3       30.02R
NANTUCKET      CLEAR     68  66  93 S6        29.99S
PROVIDENCE     PTCLDY    76  64  66 W10       29.98R
HARTFORD       CLOUDY    76  59  55 W5        29.97R
ALBANY         CLOUDY    74  59  59 CALM      29.98R
NEW YORK CITY  MOCLDY    85  67  54 SW9       29.96S
$$

ANZ081-ANZ082-ANZ150-NHZ014-MEZ023>029-250400-
COASTAL MARINE OBSERVATIONS

STATION/POSITION TIME  TEMP    WIND        PRES    WAVE
                       AIR SEA DIR/SP/G            HT/PER
                 (UTC) (F)     (DEG/KT/KT) (MB)    (FT/S)
MOUNT DESERT ROC 0300   62     250/ 18/ 19 1013.8R
MATINICUS ROCK   0200   64     260/ 15/ 15 1014.1R
ISLE OF SHOALS   0200   70     170/  9/  9 1014.4R
JEFFREYS LEDGE   0208      69                N/A     2/ 7
CASHES LEDGE BUO 0150   70 70  210/  8/ 10 1014.9    2/ 7
GEORGES BANK BUO 0150   64 63              1014.1    4/ 7
$$

.............KEY..............
   WCI - WIND CHILL
   TC  - TEMPERATURE IN CELSIUS
   VSB - VISIBILITY IN MILES
   HX  - HEAT INDEX
   FAIR- INDICATES FEW OR NO CLOUDS BELOW 12,000 FT, WITH NO
         SIGNIFICANT WEATHER AND/OR OBSTRUCTIONS TO VISIBILITY.






USA.gov is the U.S. government's official web portal to all federal, state and local government web resources and services.